Regional Weather Roundup
Issued by NWS

Home | Current Version | Previous Version | Graphics & Text | Print | Product List | Glossary On
Versions: 1 2 3 4 5 6 7 8 9 10 11 12 13 14 15 16 17 18 19 20 21 22 23 24 25 26 27 28 29 30 31 32 33 34 35 36 37 38 39 40 41 42 43 44 45 46 47 48 49 50
000
ASUS43 KMKX 180611
RWRWI

WISCONSIN REGIONAL WEATHER ROUNDUP
NATIONAL WEATHER SERVICE MILWAUKEE/SULLIVAN WI
1200 AM CST THU DEC 18 2014

NOTE: "FAIR" INDICATES FEW OR NO CLOUDS BELOW 12,000 FEET WITH NO
SIGNIFICANT WEATHER AND/OR OBSTRUCTIONS TO VISIBILITY.

WIZ001-002-006>008-014>016-023>028-180700-
NORTHWEST WISCONSIN

CITY           SKY/WX    TMP DP  RH WIND       PRES   REMARKS
SUPERIOR ARPT  CLOUDY    19  17  89 SW7       30.34R WCI  10
6HR MIN TEMP:  16; 6HR MAX TEMP:  22;

ASHLAND        CLOUDY    24  20  84 N8        30.30S WCI  15
6HR MIN TEMP:  20; 6HR MAX TEMP:  24; 6HR PCP: TRACE;

HAYWARD        CLOUDY    19  14  81 CALM      30.29S
6HR MIN TEMP:  18; 6HR MAX TEMP:  19;

SIREN          LGT SNOW  17  13  86 CALM      30.33S
6HR MIN TEMP:   9; 6HR MAX TEMP:  17;

CUMBERLAND     CLOUDY    19  14  79 NW3       30.29F
RICE LAKE      CLOUDY    19  15  82 W5        30.32S WCI  13
6HR MIN TEMP:  17; 6HR MAX TEMP:  20;

CHETEK         CLOUDY    19  15  82 CALM      30.31S
6HR MIN TEMP:  16; 6HR MAX TEMP:  19;

LADYSMITH      CLOUDY    21  18  87 W6        30.30R WCI  14
6HR MIN TEMP:  20; 6HR MAX TEMP:  21;

EAU CLAIRE     CLOUDY    19  13  77 CALM      30.30F
6HR MIN TEMP:  14; 6HR MAX TEMP:  19;

MENOMONIE      CLOUDY    19  14  78 N9        30.31F WCI   9
6HR MIN TEMP:  16; 6HR MAX TEMP:  19;

NEW RICHMOND   CLOUDY    17  14  89 NE6       30.31F WCI   8
6HR MIN TEMP:  11; 6HR MAX TEMP:  17;

OSCEOLA        CLOUDY    15  13  92 CALM      30.35F
6HR MIN TEMP:  11; 6HR MAX TEMP:  16;

$$

WIZ003>005-009-010-017-018-180700-
NORTH CENTRAL WISCONSIN

CITY           SKY/WX    TMP DP  RH WIND       PRES   REMARKS
MANITOWISH WTR CLOUDY    21  20  96 NE6       30.23R WCI  13
6HR MIN TEMP:  20; 6HR MAX TEMP:  21;

ARBOR VITAE    CLOUDY    23  20  89 NE7       30.22S WCI  15
6HR MIN TEMP:  22; 6HR MAX TEMP:  23;

WOODRUFF       CLOUDY    23  20  89 NE7       30.22S WCI  15
6HR MIN TEMP:  22; 6HR MAX TEMP:  23;

RHINELANDER    CLOUDY    20  18  92 N6        30.22R WCI  12
6HR MIN TEMP:  20; 6HR MAX TEMP:  21;

EAGLE RIVER    CLOUDY    21  20  95 N7        30.21R WCI  13
6HR MIN TEMP:  21; 6HR MAX TEMP:  21;

LAND O LAKES   CLOUDY    21  20  96 NE8G16    30.22S WCI  12
6HR MIN TEMP:  21; 6HR MAX TEMP:  22;

PHILLIPS       CLOUDY    21  17  87 NE5       30.24R WCI  14
6HR MIN TEMP:  19; 6HR MAX TEMP:  21;

TOMAHAWK       CLOUDY    21  18  86 CALM      30.24R
6HR MIN TEMP:  20; 6HR MAX TEMP:  22;

MEDFORD        CLOUDY    21  18  90 W5        30.24R WCI  14
6HR MIN TEMP:  18; 6HR MAX TEMP:  21;

MERRILL        CLOUDY    23  19  85 N5        30.24S WCI  17
6HR MIN TEMP:  21; 6HR MAX TEMP:  23;

$$

WIZ029-030-035-036-043>047-180700-
CENTRAL WISCONSIN

CITY           SKY/WX    TMP DP  RH WIND       PRES   REMARKS
WAUSAU         CLOUDY    24  19  81 N5        30.24R WCI  18
6HR MIN TEMP:  22; 6HR MAX TEMP:  24;

MOSINEE        CLOUDY    23  21  93 N3        30.26R
MARSHFIELD     CLOUDY    20  14  77 NW8       30.25F WCI  10
6HR MIN TEMP:  18; 6HR MAX TEMP:  21;

STEVENS POINT  CLOUDY    21  16  81 W5        30.27S WCI  15
6HR MIN TEMP:  17; 6HR MAX TEMP:  21;

WAUPACA        CLOUDY    24  17  74 W7        30.28S WCI  16
6HR MIN TEMP:  23; 6HR MAX TEMP:  25;

WAUTOMA        CLOUDY    21  15  78 NW6       30.28F WCI  13
6HR MIN TEMP:  18; 6HR MAX TEMP:  21;

WISC RAPIDS    CLOUDY    19  12  74 NW6       30.28F WCI  11
6HR MIN TEMP:  17; 6HR MAX TEMP:  19;

CAMP DOUGLAS   CLOUDY    19  18  93 W5        30.30R WCI  13
6HR MIN TEMP:  14; 6HR MAX TEMP:  19;

$$

WIZ011>013-019>022-031-037>040-048>050-180700-
NORTHEAST WISCONSIN

CITY           SKY/WX    TMP DP  RH WIND       PRES   REMARKS
ANTIGO         CLOUDY    22  19  90 N8        30.21S WCI  12
6HR MIN TEMP:  21; 6HR MAX TEMP:  22;

SHAWANO        CLOUDY    28  22  78 CALM      30.26R
6HR MIN TEMP:  27; 6HR MAX TEMP:  28;

OCONTO         CLOUDY    27  23  86 NW5       30.25R WCI  21
6HR MIN TEMP:  26; 6HR MAX TEMP:  27;

STURGEON BAY   CLOUDY    28  21  74 N14       30.23R WCI  17
6HR MIN TEMP:  27; 6HR MAX TEMP:  28;

GREEN BAY      CLOUDY    27  21  78 W7        30.25R WCI  19
6HR MIN TEMP:  26; 6HR MAX TEMP:  27;

MANITOWOC      CLOUDY    26  22  84 W10       30.25R WCI  16
6HR MIN TEMP:  26; 6HR MAX TEMP:  27;

APPLETON       CLOUDY    23  18  80 W10       30.26S WCI  12
CLINTONVILLE   CLOUDY    27  21  80 W5        30.26R WCI  21
OSHKOSH        CLOUDY    22  15  75 W12       30.26S WCI  10
6HR MIN TEMP:  20; 6HR MAX TEMP:  22;

$$

WIZ032>034-041-042-053>061-180700-
SOUTHWEST WISCONSIN

CITY           SKY/WX    TMP DP  RH WIND       PRES   REMARKS
LA CROSSE      MOCLDY    18  12  77 W3        30.34R
6HR MIN TEMP:  17; 6HR MAX TEMP:  21;

SPARTA         CLOUDY    19  13  76 CALM      30.32R
6HR MIN TEMP:  17; 6HR MAX TEMP:  20;

VIROQUA        PTCLDY    15  13  91 NW3       30.28S
6HR MIN TEMP:  15; 6HR MAX TEMP:  19;

BOSCOBEL       CLEAR     15  11  83 CALM      30.33F
6HR MIN TEMP:  15; 6HR MAX TEMP:  21;

PRAIRIE DU CHI PTCLDY    18  13  83 CALM      30.33F
6HR MIN TEMP:  18; 6HR MAX TEMP:  22;

PLATTEVILLE    FAIR      18  14  87 CALM      30.30S
6HR MIN TEMP:  15; 6HR MAX TEMP:  21;

$$

WIZ056-057-062-063-064-067-068-180700-
SOUTH CENTRAL WISCONSIN

CITY           SKY/WX    TMP DP  RH WIND       PRES   REMARKS
REEDSBURG      CLOUDY    18  14  85 SW6       30.30R WCI  10
6HR MIN TEMP:  17; 6HR MAX TEMP:  20;

BARABOO/DELLS  CLOUDY    18  14  84 SW5       30.29R WCI  11
6HR MIN TEMP:  16; 6HR MAX TEMP:  20;

LONE ROCK      CLEAR     21  13  71 W3        30.32R
6HR MIN TEMP:  20; 6HR MAX TEMP:  25;

MINERAL POINT  CLOUDY    21  18  86 CALM      30.28F
MADISON        CLEAR     18  13  80 CALM      30.29R
6HR MIN TEMP:  18; 6HR MAX TEMP:  22;

MIDDLETON      CLEAR     19  14  81 NW3       30.29S
6HR MIN TEMP:  18; 6HR MAX TEMP:  24;

WATERTOWN      CLEAR     18  15  88 NW6       30.27S WCI   9
6HR MIN TEMP:  17; 6HR MAX TEMP:  22;

MONROE         CLOUDY    23  18  80 CALM      30.27S
JANESVILLE     PTCLDY    21  14  73 CALM      30.30R
$$

WIZ051-052-058>065-066-070>072-180700-
SOUTHEAST WISCONSIN

CITY           SKY/WX    TMP DP  RH WIND       PRES   REMARKS
MILWAUKEE      PTCLDY    21  13  71 W9        30.27R WCI  11
6HR MIN TEMP:  21; 6HR MAX TEMP:  24;

WAUKESHA       CLEAR     18  14  86 NW8       30.27S WCI   7
MILWAUKEE/TIMM CLEAR     19  14  79 W7        30.28R WCI  10
RACINE         CLEAR     20  14  77 W7        30.28S WCI  11
6HR MIN TEMP:  20; 6HR MAX TEMP:  24;

BURLINGTON     CLEAR     17  13  84 SW5       30.28S WCI  10
6HR MIN TEMP:  17; 6HR MAX TEMP:  23;

KENOSHA        CLEAR     20  14  77 W7        30.28S WCI  11
6HR MIN TEMP:  19; 6HR MAX TEMP:  24;

FOND DU LAC    CLOUDY    22  15  75 NW7       30.27S WCI  13
6HR MIN TEMP:  20; 6HR MAX TEMP:  23;

SHEBOYGAN      CLOUDY    23  16  74 W10       30.25S WCI  12
6HR MIN TEMP:  21; 6HR MAX TEMP:  23;

WEST BEND      PTCLDY    21  16  79 NW7       30.25S WCI  13
JUNEAU         MOCLDY    18  14  84 CALM      30.28R
6HR MIN TEMP:  18; 6HR MAX TEMP:  20;

$$

LSZ147-162-180700-
LAKE SUPERIOR

STATION/POSITION TIME  TEMP    WIND        PRES    WAVE
                       AIR SEA DIR/SP/G            HT/PER
                 (UTC) (F)     (DEG/KT/KT) (MB)    (FT/S)
DEVILS ISLAND    0600   26      80/ 14/ 16 1027.8R
PORT WING        0500   21      CALM  /  3 1026.8
SAXON HARBOR     0500   27      80/  4/  9 1025.7R
$$

LMZ867-665-643>646-180700-
LAKE MICHIGAN

STATION/POSITION TIME  TEMP    WIND        PRES    WAVE



USA.gov is the U.S. government's official web portal to all federal, state and local government web resources and services.